Location: Larrial
(48.2758°N, 4.5331°W)
Time: 00:17:52
(UTC+00:00)

XW-2F - Pass Details

Date: 04 December 2021
Orbit: 495 x 515 km, 97.5° (Epoch: 16 January)

Event Time Altitude Azimuth Distance (km) Brightness Sun altitude
Rises 05:31:08 0° 29° (NNE) 2,651 ? -22.5°
Reaches altitude 10° 05:33:57 10° 52° (NE) 1,756 ? -22.0°
Maximum altitude 05:36:17 16° 91° (E) 1,430 ? -21.6°
Drops below altitude 10° 05:38:37 10° 129° (SE) 1,744 ? -21.3°
Sets 05:41:23 0° 152° (SSE) 2,621 ? -20.8°
